#datint,netname,site,siteID,timestamp,IntT,BattV,AirT2,AirT,AirT_Avg,AirT_Max,AirT_Min,RH_Avg,RH_Max,RH_Min,EA_Avg,Td_Avg,Td_Max,Td_Min,WindS_Smp,WindS_Avg,WindD_Avg,WindD_SD,WindS_Max,ETo,ETr,SoilT4,SoilT8,SoilVWC8,SolarW_Avg,wetstate_Avg,wetT_Avg,Precip_accum,Precip_WPG,Precip_TB
15min,AgWx,beryljct,423,20JUN2018:00:00:00,61.7,13.04,59.2,57.0,59.7,62.7,57.0,42,54,30,0.851,36.0,40.6,30.0,1.513,3.3,204,26,4.5,0.00012,0.00021,75.2,74.5,12,0,0,57.1,13.86,0.00,0.00
15min,AgWx,beryljct,423,20JUN2018:00:15:00,60.5,13.03,59.3,61.3,58.7,62.2,54.9,44,61,28,0.719,36.2,42.1,28.5,3.376,2.4,193,12,4.6,0.00000,0.00004,74.9,74.5,12,0,0,55.6,13.87,0.00,0.00
15min,AgWx,beryljct,423,20JUN2018:00:30:00,59.9,13.02,61.0,61.3,60.7,63.0,58.0,39,50,32,0.630,35.7,40.2,31.2,1.578,2.2,168,14,4.0,-0.00002,0.00002,74.6,74.4,12,0,0,57.2,13.87,0.00,0.00
15min,AgWx,beryljct,423,20JUN2018:00:45:00,59.7,13.01,64.1,65.4,63.4,65.7,61.5,31,38,27,0.577,32.6,35.9,30.2,0.022,0.7,147,0.5,1.9,-0.00029,-0.00041,74.2,74.4,12,0,0,58.0,13.87,0.00,0.00
15min,AgWx,beryljct,423,20JUN2018:01:00:00,59.4,13,63.1,62.2,63.3,66.3,60.3,34,48,26,0.634,34.2,41.3,30.2,1.841,0.5,147,0.6,1.9,-0.00034,-0.00051,73.9,74.3,12,0,0,57.3,13.87,0.00,0.00
15min,AgWx,beryljct,423,20JUN2018:01:15:00,59.0,13,60.9,62.0,60.9,62.6,59.8,37,43,32,0.636,34.4,37.4,32.3,3.025,2.5,164,9.2,3.3,0.00004,0.00010,73.6,74.2,12,0,0,57.6,13.87,0.00,0.00
15min,AgWx,beryljct,423,20JUN2018:01:30:00,58.9,12.97,62.3,62.0,62.2,63.0,61.4,34,37,32,0.666,33.8,35.3,32.4,2.499,2.5,163,7.9,3.7,0.00005,0.00013,73.3,74.1,12,0,0,58.1,13.87,0.00,0.00
15min,AgWx,beryljct,423,20JUN2018:01:45:00,58.9,12.97,60.8,58.5,61.0,62.3,58.5,37,44,32,0.719,34.6,36.9,32.2,3.858,3.9,182,6.3,5.0,0.00021,0.00033,73.0,74.0,12,0,0,57.8,13.87,0.00,0.00
15min,AgWx,beryljct,423,20JUN2018:02:00:00,58.6,12.96,59.9,60.2,59.6,60.9,58.2,39,44,35,0.659,34.4,36.8,32.3,3.31,3.5,161,14,4.6,0.00015,0.00025,72.7,74.0,12,0,0,56.5,13.87,0.00,0.00
15min,AgWx,beryljct,423,20JUN2018:02:15:00,58.1,12.95,57.4,56.5,57.7,60.7,56.2,45,50,36,0.737,36.2,38.8,33.7,2.696,2.2,158,15,3.4,-0.00004,-0.00001,72.4,73.9,12,0,0,54.6,13.87,0.00,0.00
15min,AgWx,beryljct,423,20JUN2018:02:30:00,57.6,12.95,59.4,60.5,58.7,60.5,56.2,42,49,38,0.680,35.5,37.5,34.3,2.083,2.3,179,9.6,3.3,-0.00001,0.00003,72.1,73.7,12,0,0,54.5,13.87,0.00,0.00
15min,AgWx,beryljct,423,20JUN2018:02:45:00,57.3,12.93,59.5,57.9,59.6,61.0,57.9,41,47,37,0.764,35.9,37.8,34.2,0.592,1.7,142,5.8,3.2,-0.00009,-0.00009,71.8,73.6,12,0,0,55.6,13.87,0.00,0.00
15min,AgWx,beryljct,423,20JUN2018:03:00:00,56.6,12.93,58.3,58.3,58.1,59.1,57.3,46,49,43,0.755,37.4,38.4,36.4,1.798,1.1,148,1.0,2.1,-0.00020,-0.00027,71.6,73.5,12,0,0,53.5,13.87,0.00,0.00
15min,AgWx,beryljct,423,20JUN2018:03:15:00,56.2,12.93,58.9,58.9,58.7,59.1,58.2,45,47,43,0.744,37.3,38.3,36.7,0,0.6,129,5.8,2.1,-0.00028,-0.00040,71.3,73.4,12,0,0,53.7,13.87,0.00,0.00
15min,AgWx,beryljct,423,20JUN2018:03:30:00,55.8,12.91,59.3,58.7,59.0,59.2,58.7,44,45,43,0.748,36.9,37.3,36.6,0,0.4,124,0.0,1.4,-0.00033,-0.00050,71.0,73.3,12,0,0,53.5,13.87,0.00,0.00
15min,AgWx,beryljct,423,20JUN2018:03:45:00,55.6,12.92,58.4,58.3,58.2,58.8,57.8,45,47,44,0.740,36.9,37.6,36.5,1.71,0.4,142,21,1.7,-0.00033,-0.00049,70.8,73.2,12,0,0,52.9,13.87,0.00,0.00
15min,AgWx,beryljct,423,20JUN2018:04:00:00,55.2,12.92,56.1,57.6,56.0,58.2,52.9,52,64,45,0.776,38.6,41.3,36.8,0,1.3,185,1.4,2.4,-0.00017,-0.00023,70.5,73.1,12,0,0,53.1,13.87,0.00,0.00
15min,AgWx,beryljct,423,20JUN2018:04:15:00,54.7,12.91,56.8,56.5,56.6,57.8,54.8,50,57,46,0.785,38.3,40.1,37.3,1.381,0.8,183,0.7,1.4,-0.00025,-0.00035,70.2,73.0,12,0,0,52.4,13.87,0.00,0.00
15min,AgWx,beryljct,423,20JUN2018:04:30:00,54.3,12.9,56.6,56.9,56.4,57.4,54.9,51,57,47,0.760,38.3,40.3,37.3,1.14,0.8,183,0.0,1.8,-0.00024,-0.00034,70.0,72.8,12,0,0,52.4,13.87,0.00,0.00
15min,AgWx,beryljct,423,20JUN2018:04:45:00,53.9,12.9,56.3,55.6,56.3,57.5,54.7,50,55,47,0.809,38.0,39.3,37.0,2.324,1.9,189,4.4,2.5,-0.00009,-0.00009,69.7,72.7,12,0,0,53.5,13.87,0.00,0.00
15min,AgWx,beryljct,423,20JUN2018:05:00:00,53.4,12.9,55.3,55.5,55.1,56.8,52.1,54,64,48,0.759,38.5,40.5,37.3,0.921,1.5,157,19,2.7,-0.00014,-0.00017,69.5,72.6,12,0,0,52.0,13.87,0.00,0.00
15min,AgWx,beryljct,423,20JUN2018:05:15:00,53.2,12.89,56.2,55.0,56.1,57.4,54.3,50,58,46,0.780,37.9,39.8,36.6,1.578,1.2,155,13,2.5,-0.00019,-0.00025,69.3,72.5,12,0,0,53.0,13.87,0.00,0.00
15min,AgWx,beryljct,423,20JUN2018:05:30:00,52.9,12.89,57.1,57.2,56.7,57.5,55.1,49,53,47,0.760,37.6,38.6,37.2,2.17,0.7,143,15,2.4,0.00010,0.00018,69.0,72.4,12,0,0,52.0,13.87,0.00,0.00
15min,AgWx,beryljct,423,20JUN2018:05:45:00,52.7,12.88,55.7,56.4,55.6,57.4,54.1,53,58,47,0.756,38.5,39.7,37.4,0,0.6,86,0.1,2.4,0.00009,0.00015,68.8,72.2,12,0,0,51.0,13.87,0.00,0.00
15min,AgWx,beryljct,423,20JUN2018:06:00:00,52.6,12.88,56.1,54.5,56.1,56.9,54.4,49,54,47,0.769,37.4,38.0,36.9,1.6,1.6,82,2.0,2.5,0.00023,0.00039,68.6,72.1,12,1,0,51.5,13.87,0.00,0.00
15min,AgWx,beryljct,423,20JUN2018:06:15:00,52.4,12.88,55.0,54.6,54.8,55.3,54.4,51,53,50,0.734,36.9,37.7,36.6,0,0.8,73,0.5,2.3,0.00013,0.00022,68.3,72.0,12,3,0,50.9,13.87,0.00,0.00
15min,AgWx,beryljct,423,20JUN2018:06:30:00,52.1,12.9,55.0,55.1,54.7,55.1,54.4,50,52,49,0.728,36.7,37.3,36.4,0.373,0.0,73,0.0,0.5,0.00015,0.00016,68.1,71.9,12,22,0,52.2,13.87,0.00,0.00
15min,AgWx,beryljct,423,20JUN2018:06:45:00,52.5,12.91,55.0,54.4,54.9,55.2,54.2,51,55,49,0.773,37.3,38.4,36.3,0.46,0.1,63,4.1,0.7,0.00035,0.00039,67.9,71.7,12,56,0,60.8,13.87,0.00,0.00
15min,AgWx,beryljct,423,20JUN2018:07:00:00,53.4,12.9,54.2,53.8,54.2,54.7,53.8,53,57,50,0.803,37.3,38.9,36.2,0,0.2,58,0.0,0.8,0.00051,0.00057,67.7,71.6,12,91,0,66.2,13.87,0.00,0.00
15min,AgWx,beryljct,423,20JUN2018:07:15:00,54.7,12.89,52.8,52.2,52.8,54.1,52.0,61,67,53,0.857,39.8,41.4,37.4,4.691,3.1,335,10,4.9,0.00088,0.00115,67.5,71.5,12,130,0,67.3,13.87,0.00,0.00
15min,AgWx,beryljct,423,20JUN2018:07:30:00,55.8,12.92,53.4,54.1,53.1,54.1,52.3,62,66,59,0.860,40.4,41.3,39.7,3.442,3.9,326,6.8,4.9,0.00112,0.00144,67.3,71.4,12,173,0,68.8,13.87,0.00,0.00
15min,AgWx,beryljct,423,20JUN2018:07:45:00,57.3,12.92,55.6,56.3,55.3,56.3,54.1,58,61,55,0.855,41.0,41.9,40.0,3.858,3.7,331,4.2,5.1,0.00139,0.00175,67.1,71.2,12,218,0,72.9,13.87,0.00,0.00
15min,AgWx,beryljct,423,20JUN2018:08:00:00,59.0,12.93,57.7,58.4,57.3,58.4,56.4,55,59,51,0.887,41.4,43.0,39.9,3.179,3.6,326,6.0,4.8,0.00170,0.00210,66.9,71.1,12,266,0,77.4,13.86,0.00,0.00
15min,AgWx,beryljct,423,20JUN2018:08:15:00,61.1,12.95,59.7,60.3,59.4,60.3,58.4,50,55,45,0.836,40.8,42.7,38.3,3.091,3.4,329,6.1,5.1,0.00204,0.00249,66.8,71.0,12,315,0,82.0,13.86,0.00,0.00
15min,AgWx,beryljct,423,20JUN2018:08:30:00,63.3,12.97,61.4,62.0,61.2,62.2,60.3,44,49,40,0.834,39.2,41.6,36.7,1.6,1.6,325,12,2.9,0.00224,0.00257,66.7,70.9,12,365,0,89.3,13.86,0.00,0.00
15min,AgWx,beryljct,423,20JUN2018:08:45:00,65.5,13.01,63.0,63.6,62.8,63.6,62.0,42,45,39,0.911,39.3,42.1,37.4,2.74,2.5,34,35,4.4,0.00267,0.00314,66.7,70.7,12,416,0,91.6,13.86,0.00,0.00
15min,AgWx,beryljct,423,20JUN2018:09:00:00,67.4,13.1,64.3,64.7,64.2,64.9,63.6,41,46,38,0.828,39.9,42.6,37.6,2.324,3.2,57,13,6.4,0.00309,0.00367,66.6,70.6,13,467,0,91.9,13.85,0.00,0.00
15min,AgWx,beryljct,423,20JUN2018:09:15:00,69.0,13.23,65.5,66.2,65.4,66.2,64.7,40,45,37,0.948,40.3,43.4,38.6,2.258,3.5,44,14,5.5,0.00346,0.00412,66.6,70.5,12,516,0,92.0,13.85,0.00,0.00
15min,AgWx,beryljct,423,20JUN2018:09:30:00,70.5,13.38,66.6,67.2,66.6,67.2,66.2,40,46,37,0.953,41.5,45.4,39.2,3.88,4.0,69,18,7.5,0.00383,0.00457,66.7,70.4,12,564,0,94.9,13.85,0.00,0.00
15min,AgWx,beryljct,423,20JUN2018:09:45:00,71.9,13.59,67.8,68.6,67.8,68.6,67.0,39,42,35,0.906,41.8,44.4,39.1,2.631,3.3,52,28,5.6,0.00408,0.00477,66.8,70.3,12,603,0,97.2,13.84,0.00,0.00
15min,AgWx,beryljct,423,20JUN2018:10:00:00,73.1,13.86,69.0,69.5,69.0,69.6,68.6,37,43,33,0.916,41.7,45.9,38.9,5.831,6.4,51,20,9.8,0.00471,0.00580,66.9,70.2,12,657,0,94.4,13.84,0.00,0.00
15min,AgWx,beryljct,423,20JUN2018:10:15:00,74.2,14.06,70.0,70.6,70.1,70.6,69.3,36,41,32,0.900,41.8,45.0,39.3,8.02,5.0,44,20,9.4,0.00495,0.00593,67.1,70.1,12,701,0,96.6,13.84,0.00,0.00
15min,AgWx,beryljct,423,20JUN2018:10:30:00,75.4,14.06,71.1,71.9,71.1,72.2,70.5,35,42,31,1.020,41.8,47.7,38.5,2.389,4.5,52,24,8.0,0.00522,0.00619,67.3,70.0,12,738,0,98.9,13.84,0.00,0.00
15min,AgWx,beryljct,423,20JUN2018:10:45:00,76.6,14.05,71.8,72.4,71.9,72.4,71.4,34,39,30,0.974,42.0,46.1,38.3,2.389,5.1,56,28,8.6,0.00555,0.00662,67.5,69.9,12,778,0,100.9,13.84,0.00,0.00
15min,AgWx,beryljct,423,20JUN2018:11:00:00,77.4,14.01,72.7,73.3,72.7,73.6,72.2,33,37,30,0.891,42.3,45.5,39.3,8.07,5.8,54,22,10.5,0.00590,0.00709,67.8,69.9,12,815,0,101.1,13.84,0.00,0.00
15min,AgWx,beryljct,423,20JUN2018:11:15:00,78.4,13.97,73.6,74.3,73.6,74.5,72.6,31,37,28,1.065,40.9,46.4,38.0,4.143,4.1,38,30,9.6,0.00607,0.00710,68.2,69.8,12,851,0,104.2,13.83,0.00,0.00
15min,AgWx,beryljct,423,20JUN2018:11:30:00,79.3,13.95,74.1,74.5,74.3,75.0,73.8,30,37,28,0.848,41.3,46.5,39.0,3.157,4.8,76,36,8.8,0.00635,0.00750,68.5,69.8,12,880,0,105.4,13.83,0.00,0.00
15min,AgWx,beryljct,423,20JUN2018:11:45:00,80.2,13.9,74.9,76.2,75.0,76.2,74.4,30,35,27,0.919,41.5,46.3,38.4,4.056,3.6,82,22,7.8,0.00651,0.00751,69.0,69.8,12,914,0,109.6,13.83,0.00,0.00
15min,AgWx,beryljct,423,20JUN2018:12:00:00,81.1,13.93,76.0,76.2,76.2,76.8,75.6,29,35,25,0.894,41.3,46.8,37.8,4.976,4.5,31,67,8.7,0.00683,0.00800,69.5,69.8,12,939,0,108.4,13.83,0.00,0.00
15min,AgWx,beryljct,423,20JUN2018:12:15:00,82.1,13.88,77.0,77.2,77.1,78.0,76.2,29,34,23,1.005,42.1,46.1,37.5,1.776,2.6,89,38,6.5,0.00687,0.00778,70.0,69.8,12,964,0,114.9,13.83,0.00,0.00
15min,AgWx,beryljct,423,20JUN2018:12:30:00,82.9,13.87,77.8,78.1,78.0,78.7,77.2,27,36,22,0.955,40.8,48.6,36.1,3.88,3.8,13,70,11.5,0.00717,0.00829,70.5,69.9,12,984,0,111.9,13.83,0.00,0.00
15min,AgWx,beryljct,423,20JUN2018:12:45:00,84.1,13.43,78.9,79.4,79.1,80.1,78.1,27,33,23,0.861,42.3,47.5,37.3,3.025,2.0,246,79,4.6,0.00715,0.00798,71.1,69.9,12,1000,0,119.5,13.83,0.00,0.00
15min,AgWx,beryljct,423,20JUN2018:13:00:00,85.0,13.41,79.9,80.4,80.1,81.0,79.3,24,33,19,1.184,40.0,49.1,34.8,4.143,3.3,285,46,5.3,0.00743,0.00852,71.7,70.0,12,1015,0,115.8,13.83,0.00,0.00
15min,AgWx,beryljct,423,20JUN2018:13:15:00,85.9,13.41,80.6,81.1,80.8,82.2,80.1,23,31,20,0.839,40.0,47.6,36.3,3.091,2.9,195,66,5.2,0.00750,0.00854,72.4,70.1,12,1024,0,117.5,13.83,0.00,0.00
15min,AgWx,beryljct,423,20JUN2018:13:30:00,86.7,13.39,80.7,81.6,81.0,81.6,80.3,25,31,21,0.956,42.2,47.7,37.7,0,3.4,107,49,6.6,0.00758,0.00869,73.0,70.2,12,1025,0,115.3,13.83,0.00,0.00
15min,AgWx,beryljct,423,20JUN2018:13:45:00,87.6,13.45,81.3,81.6,81.6,82.6,80.9,23,30,19,0.792,40.6,47.7,36.2,3.288,2.3,78,45,6.7,0.00748,0.00841,73.7,70.3,12,1028,0,120.2,13.83,0.00,0.00
15min,AgWx,beryljct,423,20JUN2018:14:00:00,88.0,13.39,81.6,82.9,81.9,82.9,81.5,24,31,18,0.935,41.4,48.7,35.1,2.214,5.4,79,32,10.7,0.00786,0.00934,74.4,70.4,12,1024,0,109.5,13.83,0.00,0.00
15min,AgWx,beryljct,423,20JUN2018:14:15:00,88.3,13.39,84.0,85.2,84.0,85.2,82.9,23,29,18,1.006,41.9,48.5,35.9,3.266,3.0,229,38,7.7,0.00763,0.00872,75.1,70.6,12,1016,0,115.0,13.83,0.00,0.00
15min,AgWx,beryljct,423,20JUN2018:14:30:00,88.8,13.39,83.4,84.0,83.9,85.8,83.1,23,29,18,0.876,42.2,48.8,35.3,4.428,6.0,306,28,12.4,0.00796,0.00958,75.8,70.7,12,1007,0,109.6,13.83,0.00,0.00
15min,AgWx,beryljct,423,20JUN2018:14:45:00,89.1,13.36,83.7,83.7,84.1,85.4,83.7,20,29,16,0.706,38.1,48.3,33.8,5.305,4.2,327,70,11.1,0.00766,0.00899,76.5,70.9,12,996,0,111.3,13.83,0.00,0.00
15min,AgWx,beryljct,423,20JUN2018:15:00:00,89.6,13.34,84.7,85.2,84.9,86.1,83.6,23,29,18,0.893,42.7,49.9,35.8,7.388,5.5,31,70,10.0,0.00774,0.00926,77.1,71.1,12,977,0,109.1,13.83,0.00,0.00
15min,AgWx,beryljct,423,20JUN2018:15:15:00,89.9,13.29,85.0,84.3,85.3,86.3,84.3,21,28,15,1.041,40.6,47.9,32.8,10.19,7.4,40,33,12.3,0.00791,0.00980,77.7,71.3,12,957,0,103.5,13.83,0.00,0.00
15min,AgWx,beryljct,423,20JUN2018:15:30:00,89.9,13.3,84.4,85.4,84.7,85.4,84.2,22,29,18,0.865,41.0,49.0,36.5,9.71,5.8,69,29,11.6,0.00744,0.00902,78.2,71.5,12,932,0,105.8,13.83,0.00,0.00
15min,AgWx,beryljct,423,20JUN2018:15:45:00,90.2,13.28,85.1,85.3,85.4,86.3,84.7,23,32,16,1.072,42.6,51.8,34.5,7.695,6.0,73,29,11.6,0.00731,0.00891,78.7,71.7,12,903,0,104.1,13.83,0.00,0.00
15min,AgWx,beryljct,423,20JUN2018:16:00:00,90.5,13.28,85.0,85.4,85.2,85.5,85.0,27,33,21,0.923,47.0,52.6,40.9,6.357,6.2,109,24,10.3,0.00705,0.00861,79.1,72.0,12,870,0,103.2,13.83,0.00,0.00
15min,AgWx,beryljct,423,20JUN2018:16:15:00,90.9,13.23,85.4,85.8,85.6,85.8,85.4,22,31,16,0.859,42.5,51.6,34.9,4.428,5.3,108,22,10.6,0.00674,0.00819,79.5,72.2,12,838,0,104.4,13.83,0.00,0.00
15min,AgWx,beryljct,423,20JUN2018:16:30:00,91.7,13.21,85.8,85.9,86.0,86.3,85.7,21,28,15,0.811,41.8,49.5,32.7,5.678,3.8,102,17,6.7,0.00605,0.00721,79.8,72.4,12,778,0,107.5,13.83,0.00,0.00
15min,AgWx,beryljct,423,20JUN2018:16:45:00,92.3,13.2,86.0,86.4,86.2,86.5,85.9,22,29,16,0.970,43.0,50.0,35.7,6.533,5.0,107,27,8.1,0.00598,0.00733,80.2,72.6,12,740,0,102.8,13.83,0.00,0.00
15min,AgWx,beryljct,423,20JUN2018:17:00:00,92.7,13.23,86.2,86.7,86.4,86.7,86.0,21,29,15,0.671,41.4,50.1,32.9,3.003,4.8,99,10,8.1,0.00585,0.00720,80.5,72.8,12,723,0,102.0,13.83,0.00,0.00
15min,AgWx,beryljct,423,20JUN2018:17:15:00,92.9,13.2,86.5,87.0,86.8,87.2,86.3,21,29,16,0.702,42.4,50.5,35.0,4.165,5.1,104,25,7.5,0.00559,0.00695,80.8,73.1,12,682,0,101.1,13.83,0.00,0.00
15min,AgWx,beryljct,423,20JUN2018:17:30:00,93.1,13.18,86.6,87.0,86.9,87.3,86.4,22,30,17,1.158,43.8,51.4,36.5,3.332,4.3,96,12,7.4,0.00499,0.00618,81.2,73.3,12,620,0,100.2,13.83,0.00,0.00
15min,AgWx,beryljct,423,20JUN2018:17:45:00,93.2,13.18,86.9,87.3,87.1,87.7,86.7,23,32,15,1.016,44.2,53.0,34.9,4.034,3.9,119,22,8.1,0.00471,0.00578,81.5,73.5,12,596,0,100.2,13.83,0.00,0.00
15min,AgWx,beryljct,423,20JUN2018:18:00:00,93.1,13.17,86.6,86.7,86.9,87.3,86.4,23,27,17,1.171,44.1,48.8,36.4,3.113,5.1,113,11,7.2,0.00460,0.00588,81.9,73.7,12,548,0,97.3,13.83,0.00,0.00
15min,AgWx,beryljct,423,20JUN2018:18:15:00,93.0,13.17,87.1,87.6,87.3,87.9,86.7,21,27,15,0.970,42.2,49.5,33.6,4.713,4.1,110,18,8.0,0.00404,0.00513,82.1,73.9,12,500,0,97.3,13.83,0.00,0.00
15min,AgWx,beryljct,423,20JUN2018:18:30:00,92.8,13.22,86.9,86.6,87.2,88.0,86.5,24,32,16,1.029,46.1,53.6,35.0,4.165,3.3,124,17,5.6,0.00350,0.00439,82.4,74.2,12,452,0,96.1,13.83,0.00,0.00
15min,AgWx,beryljct,423,20JUN2018:18:45:00,92.5,13.22,86.2,85.9,86.5,87.0,85.9,27,33,20,1.222,48.8,53.8,41.6,4.647,3.5,96,9.2,4.6,0.00312,0.00397,82.6,74.4,12,402,0,93.9,13.83,0.00,0.00
15min,AgWx,beryljct,423,20JUN2018:19:00:00,91.8,13.22,86.0,86.2,86.2,87.0,85.6,26,33,18,0.976,47.3,53.9,37.6,4.911,4.2,85,7.9,5.7,0.00290,0.00388,82.8,74.6,12,352,0,91.2,13.83,0.00,0.00
15min,AgWx,beryljct,423,20JUN2018:19:15:00,91.1,13.18,86.1,87.1,86.3,87.6,85.6,24,31,14,0.974,45.3,51.6,32.7,5.283,4.5,79,8.4,6.7,0.00260,0.00363,83.0,74.8,12,304,0,89.5,13.83,0.00,0.00
15min,AgWx,beryljct,423,20JUN2018:19:30:00,90.2,13.16,84.7,84.4,85.1,87.6,84.1,27,33,15,1.230,47.4,52.3,33.4,3.508,4.8,105,10,7.0,0.00228,0.00330,83.1,75.0,12,256,0,87.4,13.83,0.00,0.00
15min,AgWx,beryljct,423,20JUN2018:19:45:00,89.0,13.16,83.3,83.8,83.5,84.3,81.9,31,44,24,0.981,50.0,58.2,42.8,5.765,4.1,100,7.1,6.1,0.00172,0.00252,83.1,75.2,12,210,0,85.3,13.84,0.00,0.00
15min,AgWx,beryljct,423,20JUN2018:20:00:00,87.8,13.13,82.2,82.9,82.5,84.3,80.9,33,43,25,1.018,50.6,56.4,44.1,3.069,3.2,111,7.6,5.8,0.00120,0.00181,83.2,75.3,12,167,0,83.6,13.84,0.00,0.00
15min,AgWx,beryljct,423,20JUN2018:20:15:00,86.8,13.12,82.9,82.2,83.1,85.9,80.9,30,47,16,1.181,47.4,59.6,35.0,0,1.5,110,31,3.7,0.00042,0.00067,83.1,75.5,12,127,0,82.1,13.84,0.00,0.00
15min,AgWx,beryljct,423,20JUN2018:20:30:00,85.7,13.15,83.0,81.2,83.3,85.2,80.1,27,35,17,0.936,45.2,52.2,35.5,3.814,2.5,107,31,4.7,0.00046,0.00074,83.1,75.6,12,88,0,80.1,13.84,0.00,0.00
15min,AgWx,beryljct,423,20JUN2018:20:45:00,84.4,13.12,82.3,83.2,82.3,83.3,81.3,22,29,16,0.683,38.8,46.6,32.7,7.607,5.4,168,23,11.9,0.00088,0.00131,82.9,75.8,12,52,0,79.1,13.84,0.00,0.00
15min,AgWx,beryljct,423,20JUN2018:21:00:00,83.2,13.1,81.6,80.6,82.0,83.3,80.5,19,21,16,0.685,35.2,37.4,32.8,8.88,8.3,190,11,10.6,0.00121,0.00169,82.8,75.9,12,14,0,79.2,13.85,0.00,0.00
15min,AgWx,beryljct,423,20JUN2018:21:15:00,81.4,13.09,80.0,81.2,80.0,81.3,78.4,20,24,16,0.575,35.0,40.3,29.9,4.253,6.3,212,6.5,8.2,0.00087,0.00127,82.5,76.1,13,2,0,77.0,13.85,0.00,0.00
15min,AgWx,beryljct,423,20JUN2018:21:30:00,79.6,13.09,78.7,77.6,79.1,81.4,76.6,21,28,16,0.692,35.7,41.6,30.4,5.897,4.7,203,6.6,6.2,0.00058,0.00090,82.2,76.2,12,0,0,75.1,13.85,0.00,0.00
15min,AgWx,beryljct,423,20JUN2018:21:45:00,77.8,13.08,76.4,76.1,76.6,77.6,75.7,23,25,21,0.712,35.6,37.7,33.7,5.459,5.8,204,4.5,7.4,0.00070,0.00103,81.9,76.2,12,0,0,73.0,13.85,0.00,0.00
15min,AgWx,beryljct,423,20JUN2018:22:00:00,76.3,13.07,76.1,75.5,76.1,76.8,75.5,22,24,20,0.700,34.7,36.3,32.9,5.59,5.9,203,4.4,6.9,0.00072,0.00105,81.6,76.3,12,0,0,72.3,13.85,0.00,0.00
15min,AgWx,beryljct,423,20JUN2018:22:15:00,75.1,13.05,74.4,73.5,74.6,75.7,73.5,24,26,22,0.741,35.0,36.9,33.5,4.494,5.0,187,7.1,6.8,0.00056,0.00085,81.2,76.4,12,0,0,71.0,13.85,0.00,0.00
15min,AgWx,beryljct,423,20JUN2018:22:30:00,74.1,13.04,74.2,75.1,74.0,75.4,72.4,25,29,22,0.704,36.2,38.2,34.1,6.072,5.8,200,6.3,8.2,0.00065,0.00094,80.8,76.4,12,0,0,70.2,13.85,0.00,0.00
15min,AgWx,beryljct,423,20JUN2018:22:45:00,73.4,13.04,72.1,68.8,72.8,75.1,68.8,25,32,22,0.779,35.0,38.3,32.0,5.48,5.4,173,13,7.3,0.00058,0.00086,80.5,76.5,12,0,0,69.6,13.85,0.00,0.00
15min,AgWx,beryljct,423,20JUN2018:23:00:00,72.1,13.03,69.0,67.7,69.1,71.9,67.3,31,37,25,0.831,37.1,40.5,33.6,3.157,5.3,139,78,8.5,0.00048,0.00071,80.1,76.5,12,0,0,66.7,13.85,0.00,0.00
15min,AgWx,beryljct,423,20JUN2018:23:15:00,70.6,13.02,68.8,67.4,68.7,70.8,67.4,28,35,23,0.616,33.9,39.2,30.4,5.919,5.0,52,9.2,7.9,0.00046,0.00069,79.7,76.5,12,0,0,65.7,13.85,0.00,0.00
15min,AgWx,beryljct,423,20JUN2018:23:30:00,69.0,13.01,65.9,63.0,66.4,69.6,63.0,35,50,26,0.923,37.4,45.2,31.7,3.069,4.4,107,41,5.8,0.00033,0.00050,79.3,76.5,12,0,0,64.3,13.85,0.00,0.00
15min,AgWx,beryljct,423,20JUN2018:23:45:00,67.5,13,66.9,70.3,66.0,70.3,62.7,35,49,25,0.632,37.4,43.3,32.4,2.455,3.2,293,37,5.2,0.00017,0.00029,78.9,76.5,12,0,0,62.2,13.86,0.00,0.00
15min,AgWx,beryljct,423,21JUN2018:00:00:00,66.7,12.99,66.9,66.6,67.2,70.4,63.0,32,48,25,0.701,35.6,44.0,30.9,3.266,2.3,235,26,3.5,0.00003,0.00010,78.6,76.4,12,0,0,63.0,13.86,0.00,0.00
15min,AgWx,beryljct,423,21JUN2018:00:15:00,65.4,12.97,61.0,60.8,61.6,66.4,59.3,45,52,33,0.700,40.1,43.1,34.2,3.902,3.5,208,17,5.1,0.00013,0.00022,78.2,76.4,12,0,0,59.7,13.86,0.00,0.00
15min,AgWx,beryljct,423,21JUN2018:00:30:00,64.0,12.97,59.8,60.1,59.8,62.7,57.6,42,52,32,0.638,36.8,40.9,32.1,3.661,3.9,198,4.8,4.9,0.00018,0.00029,77.8,76.3,12,0,0,57.2,13.86,0.00,0.00
15min,AgWx,beryljct,423,21JUN2018:00:45:00,63.0,12.96,63.6,62.7,63.1,65.1,60.1,33,42,27,0.598,33.6,38.6,30.5,2.565,2.9,197,7.1,3.7,0.00012,0.00022,77.4,76.3,12,0,0,58.9,13.86,0.00,0.00
15min,AgWx,bigpiney,439,20JUN2018:00:00:00,50.1,12.85,44.7,44.7,45.1,45.6,44.7,85,86,84,0.866,40.9,41.1,40.7,2.74,2.2,290,24,3.5,0.00002,0.00003,55.6,53.6,54,0,0,0.0,.,0.00,0.00
15min,AgWx,bigpiney,439,20JUN2018:00:15:00,49.4,12.84,44.2,44.0,44.1,44.7,43.9,88,89,86,0.864,40.7,40.9,40.5,1.929,2.8,280,7.5,4.0,0.00002,0.00003,55.5,53.6,54,0,0,0.0,.,0.00,0.00
15min,AgWx,bigpiney,439,20JUN2018:00:30:00,48.7,12.82,45.3,44.5,44.2,44.5,43.9,87,88,85,0.852,40.5,40.8,40.2,0.482,1.4,277,8.0,2.6,-0.00001,-0.00000,55.4,53.6,54,0,0,0.0,.,0.00,0.00
15min,AgWx,bigpiney,439,20JUN2018:00:45:00,48.1,12.81,45.9,45.3,44.7,45.4,44.2,84,85,81,0.832,40.0,40.4,39.8,3.047,2.1,10,35,3.4,0.00002,0.00003,55.4,53.6,54,0,0,0.0,.,0.00,0.00
15min,AgWx,bigpiney,439,20JUN2018:01:00:00,47.6,12.81,44.0,43.6,44.1,45.4,43.4,84,87,80,0.835,39.7,40.0,39.4,3.157,3.0,307,16,4.1,0.00004,0.00006,55.3,53.5,54,0,0,0.0,.,0.00,0.00
15min,AgWx,bigpiney,439,20JUN2018:01:15:00,47.1,12.8,41.5,41.3,42.8,43.8,41.3,87,88,86,0.779,39.2,40.0,38.0,3.244,3.0,245,23,4.0,0.00002,0.00004,55.2,53.5,54,0,0,0.0,.,0.00,0.00
15min,AgWx,bigpiney,439,20JUN2018:01:30:00,46.6,12.79,40.1,40.1,40.8,41.3,40.1,90,91,89,0.768,38.1,38.8,37.7,3.157,2.4,213,22,4.4,0.00000,0.00001,55.1,53.5,54,0,0,0.0,.,0.00,0.00
15min,AgWx,bigpiney,439,20JUN2018:01:45:00,46.0,12.79,41.4,40.8,40.2,40.8,39.9,92,92,91,0.787,37.9,38.4,37.7,2.828,2.8,220,18,4.2,0.00000,0.00001,55.1,53.5,54,0,0,0.0,.,0.00,0.00
15min,AgWx,bigpiney,439,20JUN2018:02:00:00,45.4,12.77,41.1,40.7,40.9,41.1,40.6,90,91,89,0.778,38.1,38.5,37.7,1.184,1.7,226,12,3.5,-0.00001,-0.00001,55.0,53.5,54,0,0,0.0,.,0.00,0.00
15min,AgWx,bigpiney,439,20JUN2018:02:15:00,45.0,12.76,40.7,40.7,40.8,41.4,40.5,89,91,88,0.756,37.9,38.8,37.4,3.551,2.1,212,16,4.2,0.00000,0.00001,54.9,53.5,54,0,0,0.0,.,0.00,0.00
15min,AgWx,bigpiney,439,20JUN2018:02:30:00,44.6,12.76,39.7,39.6,40.3,40.7,39.6,90,91,88,0.753,37.5,38.0,37.1,0.482,1.2,210,6.8,3.4,-0.00002,-0.00002,54.8,53.5,54,0,0,0.0,.,0.00,0.00
15min,AgWx,bigpiney,439,20JUN2018:02:45:00,44.2,12.75,39.5,39.4,39.5,39.7,39.4,92,93,91,0.759,37.4,37.6,37.2,2.28,0.9,242,23,2.5,-0.00003,-0.00004,54.7,53.4,54,0,0,0.0,.,0.00,0.00
15min,AgWx,bigpiney,439,20JUN2018:03:00:00,43.7,12.74,38.5,38.8,39.3,39.8,38.8,93,94,92,0.732,37.5,38.1,36.6,2.543,1.7,254,25,3.6,-0.00002,-0.00002,54.6,53.4,54,0,78,0.0,.,0.00,0.00
15min,AgWx,bigpiney,439,20JUN2018:03:15:00,43.4,12.72,39.2,38.8,38.3,38.8,37.8,93,94,92,0.752,36.5,37.2,35.8,1.776,1.8,245,26,3.0,-0.00001,-0.00002,54.5,53.3,54,0,100,0.0,.,0.00,0.00
15min,AgWx,bigpiney,439,20JUN2018:03:30:00,43.0,12.72,38.6,38.8,38.9,39.1,38.8,94,94,94,0.750,37.3,37.6,37.1,1.206,0.9,280,23,1.8,-0.00003,-0.00004,54.4,53.3,54,0,100,0.0,.,0.00,0.00
15min,AgWx,bigpiney,439,20JUN2018:03:45:00,42.7,12.71,39.1,39.6,38.9,40.3,37.7,94,95,90,0.747,37.2,38.5,35.9,3.069,2.0,236,34,3.4,-0.00001,-0.00002,54.2,53.3,54,0,100,0.0,.,0.00,0.00
15min,AgWx,bigpiney,439,20JUN2018:04:00:00,42.5,12.7,37.2,37.1,38.1,39.5,37.0,92,93,90,0.692,35.9,36.8,35.1,3.157,2.5,222,19,3.9,-0.00000,-0.00000,54.1,53.2,54,0,100,0.0,.,0.00,0.00
15min,AgWx,bigpiney,439,20JUN2018:04:15:00,42.1,12.68,38.3,37.5,37.0,37.5,36.8,93,94,93,0.713,35.2,35.9,35.0,2.543,2.9,232,16,3.8,-0.00000,0.00000,54.0,53.2,54,0,100,0.0,.,0.00,0.00
15min,AgWx,bigpiney,439,20JUN2018:04:30:00,41.8,12.67,39.6,38.8,38.4,38.8,37.6,92,94,91,0.734,36.4,37.0,36.0,4.45,3.9,239,8.5,5.5,0.00001,0.00001,53.9,53.2,54,0,100,0.0,.,0.00,0.00
15min,AgWx,bigpiney,439,20JUN2018:04:45:00,41.8,12.66,40.6,40.3,39.9,40.4,38.9,90,92,89,0.755,37.2,37.4,36.7,3.705,3.3,245,6.8,4.9,0.00001,0.00002,53.7,53.1,54,0,100,0.0,.,0.00,0.00
15min,AgWx,bigpiney,439,20JUN2018:05:00:00,41.9,12.65,40.6,39.9,39.9,40.3,39.6,89,90,88,0.750,37.0,37.3,36.6,1.535,2.2,258,27,4.1,0.00000,0.00001,53.6,53.1,54,0,100,0.0,.,0.00,0.00
15min,AgWx,bigpiney,439,20JUN2018:05:15:00,42.0,12.63,38.6,38.8,40.0,40.5,38.8,88,90,87,0.711,36.8,37.5,35.8,2.872,2.7,246,43,4.4,0.00001,0.00002,53.5,53.0,54,0,100,0.0,.,0.00,0.00
15min,AgWx,bigpiney,439,20JUN2018:05:30:00,41.9,12.62,39.6,39.9,38.9,39.9,38.6,91,92,89,0.758,36.4,37.4,35.7,0.504,1.7,275,50,3.2,-0.00001,-0.00001,53.3,53.0,54,0,100,0.0,.,0.00,0.00
15min,AgWx,bigpiney,439,20JUN2018:05:45:00,41.7,12.62,39.8,39.5,40.0,40.5,39.2,88,90,86,0.709,36.8,37.2,35.7,1.556,0.6,332,61,1.8,-0.00002,-0.00003,53.2,52.9,54,3,100,0.0,.,0.00,0.00
15min,AgWx,bigpiney,439,20JUN2018:06:00:00,41.6,12.63,39.1,38.9,39.2,40.0,38.8,90,92,87,0.736,36.5,37.2,35.8,1.535,1.3,61,33,3.3,-0.00036,-0.00037,53.1,52.8,54,17,100,0.0,.,0.00,0.00
15min,AgWx,bigpiney,439,20JUN2018:06:15:00,41.6,12.64,38.9,38.7,38.7,39.0,38.6,93,94,92,0.746,36.8,37.1,36.5,1.359,1.1,9.4,34,2.5,-0.00023,-0.00024,53.0,52.8,54,45,100,0.0,.,0.00,0.00
15min,AgWx,bigpiney,439,20JUN2018:06:30:00,41.9,12.65,39.6,39.5,39.3,39.8,38.6,94,95,94,0.773,37.8,38.3,37.0,1.447,1.1,351,43,4.0,-0.00008,-0.00008,52.8,52.7,54,76,100,0.0,.,0.00,0.00